Location: Cerda�ola
(41.4919°N, 2.1403°E)
Time: 20:19:17
(UTC+00:00)

Lacrosse 4 Rocket - Pass Details

Date: 19 August 2020
Orbit: 544 x 615 km, 68.0° (Epoch: 01 October)

Event Time Altitude Azimuth Distance (km) Brightness Sun altitude
Rises 04:28:20 0° 349° (N) 2,722 5.0 -7.2°
Reaches altitude 10° 04:31:55 10° 22° (NNE) 1,818 4.7 -6.6°
Maximum altitude 04:33:28 12° 45° (NE) 1,698 5.1 -6.3°
Drops below altitude 10° 04:35:00 10° 67° (ENE) 1,813 5.9 -6.0°
Sets 04:38:33 0° 100° (E) 2,703 6.0 -5.4°
